THY198 LTFM-RJTT

Flight info

Callsign THY198
Flight time N/A
Altitude 33000
Route VICEN1S/36 VICEN UT380 ASMAP UL333 LATGA UT363 GURBU UA4 ERZ UB374 INDUR DCT PEMAN N161 EDATA M11 LUSAL DCT BAK DCT NAMAS N35 RODAR A909 TUNEK B143 KRS A480 OTBOR/K0883F330 N147 GOBUL/K0889F350 N147 GENDI Z621 ARBOL M610 RULAD/K0880S1070 A343 POSOT B215 FKG W188 LIKMI W270 DKO/K0876S1130 W69 HUR B339 LADIX W34 VAPGU W100 ORAVA W201 UNSEK A326 DONVO G597 AGAVO/N0476F370 Y644 EGOBA Y697 LANAT Y71 XAC
Aircraft B77W/H-SDE1E2E3FGHIJ2J3J4J5M1RWXY/LB1D1

Departure

Time 2026-05-07 16:27
Airport İstanbul Airport (LTFM)

Arrival

Time N/A
Airport Tokyo Haneda International Airport (RJTT)
Time Latitude Longitude Altitude Speed Heading
2026-05-07 16:09 41.26795 28.74744 339 ft 0 kts 181°
2026-05-07 16:18 41.26803 28.74745 335 ft 4 kts 179°
2026-05-07 16:18 41.26831 28.74741 333 ft 4 kts 167°
2026-05-07 16:19 41.26856 28.74731 339 ft 4 kts 153°
2026-05-07 16:19 41.26878 28.74712 339 ft 4 kts 128°
2026-05-07 16:19 41.26887 28.74687 334 ft 1 kts 89°
2026-05-07 16:22 41.26887 28.74722 338 ft 11 kts 89°
2026-05-07 16:22 41.26889 28.74823 339 ft 11 kts 89°
2026-05-07 16:22 41.26890 28.74926 339 ft 11 kts 89°
2026-05-07 16:23 41.26892 28.75031 339 ft 11 kts 89°
2026-05-07 16:23 41.26894 28.75134 335 ft 11 kts 89°
2026-05-07 16:23 41.26895 28.75238 337 ft 11 kts 89°
2026-05-07 16:23 41.26886 28.75340 333 ft 11 kts 115°
2026-05-07 16:24 41.26817 28.75379 335 ft 12 kts 178°
2026-05-07 16:24 41.26737 28.75381 336 ft 12 kts 179°
2026-05-07 16:24 41.26657 28.75383 339 ft 12 kts 179°
2026-05-07 16:24 41.26577 28.75384 339 ft 12 kts 180°
2026-05-07 16:25 41.26497 28.75384 335 ft 12 kts 179°
2026-05-07 16:25 41.26417 28.75387 339 ft 12 kts 178°
2026-05-07 16:25 41.26337 28.75390 335 ft 12 kts 178°
2026-05-07 16:25 41.26258 28.75435 335 ft 17 kts 116°
2026-05-07 16:26 41.26251 28.75591 337 ft 17 kts 86°
2026-05-07 16:26 41.26300 28.75661 336 ft 13 kts 12°
2026-05-07 16:26 41.26664 28.75658 334 ft 98 kts 359°
2026-05-07 16:26 41.27661 28.75640 353 ft 187 kts 359°
2026-05-07 16:27 41.29097 28.75629 1071 ft 214 kts
2026-05-07 16:27 41.30550 28.75951 2072 ft 215 kts 28°
2026-05-07 16:27 41.31629 28.77392 2338 ft 234 kts 65°
2026-05-07 16:27 41.32410 28.79357 2591 ft 248 kts 47°
2026-05-07 16:28 41.33883 28.80512 3122 ft 249 kts 16°
2026-05-07 16:28 41.35531 28.81344 3673 ft 258 kts 24°
2026-05-07 16:28 41.37141 28.82457 4291 ft 264 kts 32°
2026-05-07 16:28 41.38406 28.84254 4728 ft 275 kts 66°
2026-05-07 16:29 41.38722 28.86766 5318 ft 279 kts 94°
2026-05-07 16:29 41.38523 28.89354 5849 ft 285 kts 105°
2026-05-07 16:29 41.37791 28.91818 6446 ft 289 kts 118°
2026-05-07 16:29 41.36814 28.94150 7261 ft 289 kts 121°
2026-05-07 16:30 41.35787 28.96470 7993 ft 293 kts 121°
2026-05-07 16:30 41.34750 28.98829 8649 ft 298 kts 121°
2026-05-07 16:30 41.33712 29.01236 9337 ft 301 kts 120°
2026-05-07 16:30 41.32678 29.03673 10040 ft 303 kts 120°
2026-05-07 16:31 41.31640 29.06157 10587 ft 314 kts 119°
2026-05-07 16:31 41.30547 29.08796 10757 ft 337 kts 118°
2026-05-07 16:31 41.29386 29.11619 10954 ft 359 kts 118°
2026-05-07 16:31 41.28157 29.14628 11198 ft 379 kts 118°
2026-05-07 16:32 41.26885 29.17752 11759 ft 389 kts 118°
2026-05-07 16:32 41.25589 29.20937 12467 ft 394 kts 118°
2026-05-07 16:32 41.24278 29.24164 13215 ft 399 kts 118°
2026-05-07 16:32 41.22953 29.27423 13966 ft 402 kts 117°
2026-05-07 16:33 41.21614 29.30713 14652 ft 408 kts 117°
2026-05-07 16:33 41.20252 29.34058 15293 ft 415 kts 117°
2026-05-07 16:33 41.18871 29.37444 15967 ft 419 kts 117°
2026-05-07 16:33 41.17474 29.40865 16643 ft 423 kts 117°
2026-05-07 16:34 41.16061 29.44321 17232 ft 429 kts 117°
2026-05-07 16:34 41.14625 29.47829 17829 ft 435 kts 117°
2026-05-07 16:34 41.13173 29.51374 18451 ft 439 kts 117°
2026-05-07 16:34 41.11705 29.54954 19034 ft 444 kts 117°
2026-05-07 16:35 41.10223 29.58563 19642 ft 448 kts 117°
2026-05-07 16:35 41.08721 29.62215 20192 ft 453 kts 117°
2026-05-07 16:35 41.07204 29.65901 20725 ft 458 kts 117°
2026-05-07 16:35 41.05669 29.69628 21242 ft 463 kts 117°
2026-05-07 16:36 41.04116 29.73387 21778 ft 467 kts 116°
2026-05-07 16:36 41.02548 29.77180 22291 ft 471 kts 116°
2026-05-07 16:36 41.00966 29.81006 22777 ft 476 kts 116°
2026-05-07 16:36 40.99366 29.84868 23242 ft 480 kts 116°
2026-05-07 16:37 40.97773 29.88706 23731 ft 484 kts 116°
2026-05-07 16:37 40.96143 29.92629 24161 ft 489 kts 116°
2026-05-07 16:37 40.94476 29.96638 24624 ft 492 kts 116°
2026-05-07 16:37 40.92819 30.00619 25075 ft 496 kts 117°
2026-05-07 16:38 40.91171 30.04571 25519 ft 499 kts 116°
2026-05-07 16:38 40.89488 30.08598 25954 ft 502 kts 116°
2026-05-07 16:38 40.87795 30.12647 26362 ft 506 kts 116°
2026-05-07 16:38 40.86086 30.16730 26731 ft 509 kts 116°
2026-05-07 16:39 40.84365 30.20833 27100 ft 512 kts 116°
2026-05-07 16:39 40.82632 30.24961 27497 ft 515 kts 116°
2026-05-07 16:39 40.80889 30.29108 27867 ft 518 kts 116°
2026-05-07 16:39 40.79136 30.33273 28212 ft 521 kts 116°
2026-05-07 16:40 40.77372 30.37456 28552 ft 523 kts 116°
2026-05-07 16:40 40.75597 30.41659 28868 ft 526 kts 116°
2026-05-07 16:40 40.73813 30.45878 29181 ft 528 kts 116°
2026-05-07 16:40 40.72025 30.50102 29528 ft 528 kts 117°
2026-05-07 16:41 40.70233 30.54329 29951 ft 527 kts 117°
2026-05-07 16:41 40.68446 30.58539 30387 ft 526 kts 116°
2026-05-07 16:41 40.66662 30.62737 30782 ft 525 kts 117°
2026-05-07 16:41 40.64886 30.66929 31170 ft 524 kts 115°
2026-05-07 16:42 40.63306 30.71242 31476 ft 522 kts 110°
2026-05-07 16:42 40.62025 30.75696 31809 ft 519 kts 103°
2026-05-07 16:42 40.61068 30.80252 32188 ft 515 kts 101°
2026-05-07 16:42 40.60154 30.84801 32514 ft 514 kts 101°
2026-05-07 16:43 40.59228 30.89350 32807 ft 514 kts 101°
2026-05-07 16:43 40.58286 30.93884 33092 ft 514 kts 102°
2026-05-07 16:43 40.57330 30.98415 33378 ft 514 kts 102°
2026-05-07 16:43 40.56367 31.02932 33687 ft 513 kts 102°
2026-05-07 16:44 40.55402 31.07445 33981 ft 513 kts 102°
2026-05-07 16:44 40.53461 31.16520 34116 ft 517 kts 102°
2026-05-07 16:45 40.51512 31.25589 34129 ft 513 kts 102°
2026-05-07 16:45 40.49566 31.34603 34143 ft 512 kts 102°
2026-05-07 16:46 40.47620 31.43602 34130 ft 512 kts 102°
2026-05-07 16:46 40.45664 31.52595 34140 ft 513 kts 102°
2026-05-07 16:47 40.43715 31.61546 34147 ft 514 kts 102°
2026-05-07 16:47 40.41741 31.70581 34138 ft 515 kts 102°
2026-05-07 16:48 40.39757 31.79628 34145 ft 516 kts 102°
2026-05-07 16:48 40.37761 31.88692 34142 ft 518 kts 102°
2026-05-07 16:49 40.35745 31.97771 34146 ft 519 kts 102°
2026-05-07 16:49 40.33650 32.06831 34145 ft 519 kts 103°
2026-05-07 16:50 40.31667 32.15903 34155 ft 517 kts 100°
2026-05-07 16:50 40.29926 32.25020 34152 ft 515 kts 99°
2026-05-07 16:51 40.28191 32.34107 34157 ft 514 kts 100°
2026-05-07 16:51 40.26406 32.43172 34152 ft 514 kts 100°
2026-05-07 16:52 40.24596 32.52237 34159 ft 514 kts 100°
2026-05-07 16:52 40.22780 32.61291 34152 ft 514 kts 101°
2026-05-07 16:53 40.20965 32.70320 34162 ft 513 kts 100°
2026-05-07 16:53 40.19143 32.79344 34164 ft 513 kts 101°
2026-05-07 16:54 40.17317 32.88359 34150 ft 512 kts 101°
2026-05-07 16:54 40.15550 32.97357 34153 ft 509 kts 96°
2026-05-07 16:55 40.14788 33.06455 34165 ft 500 kts 85°
2026-05-07 16:55 40.15035 33.15481 34156 ft 496 kts 82°
2026-05-07 16:56 40.15289 33.22961 34157 ft 496 kts 82°
2026-05-07 16:56 40.15709 33.37885 34150 ft 496 kts 83°
2026-05-07 16:57 40.15937 33.46888 34161 ft 495 kts 83°
2026-05-07 16:57 40.16159 33.55893 34150 ft 496 kts 83°
2026-05-07 16:58 40.16344 33.63442 34157 ft 496 kts 83°
2026-05-07 16:58 40.16555 33.72454 34147 ft 496 kts 83°
2026-05-07 16:59 40.16717 33.81472 34154 ft 498 kts 86°
2026-05-07 16:59 40.15898 33.90527 34160 ft 505 kts 97°
2026-05-07 17:00 40.14572 33.99475 34155 ft 504 kts 95°
2026-05-07 17:00 40.13590 34.08529 34161 ft 503 kts 92°
2026-05-07 17:01 40.12695 34.17591 34152 ft 503 kts 93°
2026-05-07 17:01 40.11741 34.26652 34152 ft 503 kts 94°
2026-05-07 17:02 40.10745 34.35706 34149 ft 504 kts 94°
2026-05-07 17:02 40.09737 34.44766 34144 ft 503 kts 94°
2026-05-07 17:03 40.08726 34.53803 34149 ft 503 kts 94°
2026-05-07 17:03 40.07710 34.62827 34145 ft 502 kts 94°
2026-05-07 17:04 40.06690 34.71837 34147 ft 501 kts 94°
2026-05-07 17:04 40.05665 34.80823 34146 ft 500 kts 94°
2026-05-07 17:05 40.04639 34.89741 34067 ft 491 kts 94°
2026-05-07 17:05 40.03627 34.98458 33863 ft 482 kts 94°
2026-05-07 17:06 40.03126 35.02773 33628 ft 481 kts 94°
2026-05-07 17:06 40.02624 35.07090 33289 ft 482 kts 94°
2026-05-07 17:06 40.02119 35.11414 32951 ft 483 kts 94°
2026-05-07 17:06 40.01611 35.15743 32636 ft 483 kts 94°
2026-05-07 17:07 40.01102 35.20074 32343 ft 483 kts 94°
2026-05-07 17:07 40.00590 35.24401 32038 ft 483 kts 94°
2026-05-07 17:07 40.00077 35.28731 31710 ft 483 kts 94°
2026-05-07 17:07 39.99562 35.33069 31359 ft 485 kts 94°
2026-05-07 17:08 39.99041 35.37428 30883 ft 489 kts 94°
2026-05-07 17:08 39.98502 35.41814 30462 ft 492 kts 94°
2026-05-07 17:08 39.97948 35.46232 29976 ft 495 kts 94°
2026-05-07 17:08 39.97387 35.50669 29558 ft 497 kts 95°
2026-05-07 17:09 39.96830 35.55051 29238 ft 496 kts 95°
2026-05-07 17:09 39.96268 35.59457 29184 ft 491 kts 95°
2026-05-07 17:09 39.95143 35.68311 29170 ft 494 kts 95°
2026-05-07 17:10 39.94022 35.77117 29160 ft 496 kts 95°
2026-05-07 17:10 39.92874 35.86049 29154 ft 496 kts 95°
2026-05-07 17:11 39.91739 35.94848 29156 ft 496 kts 95°
2026-05-07 17:11 39.90573 36.03688 29164 ft 495 kts 95°
2026-05-07 17:12 39.89401 36.12510 29160 ft 494 kts 95°
2026-05-07 17:12 39.88228 36.21311 29162 ft 493 kts 95°
2026-05-07 17:13 39.87034 36.30103 29174 ft 494 kts 96°
2026-05-07 17:13 39.85691 36.38874 29178 ft 494 kts 96°
2026-05-07 17:14 39.84501 36.47677 29189 ft 494 kts 95°
2026-05-07 17:14 39.83359 36.56500 29199 ft 495 kts 95°
2026-05-07 17:15 39.82180 36.65318 29218 ft 495 kts 96°
2026-05-07 17:15 39.80979 36.74124 29222 ft 494 kts 96°
2026-05-07 17:16 39.79778 36.82912 29233 ft 493 kts 96°
2026-05-07 17:16 39.79180 36.91716 29244 ft 486 kts 85°
2026-05-07 17:17 39.79752 37.00397 29247 ft 481 kts 79°
2026-05-07 17:17 39.80526 37.09029 29238 ft 480 kts 79°
2026-05-07 17:18 39.81248 37.17607 29231 ft 480 kts 80°
2026-05-07 17:18 39.81947 37.26239 29227 ft 480 kts 80°
2026-05-07 17:19 39.82642 37.34868 29220 ft 479 kts 80°
2026-05-07 17:19 39.83332 37.43484 29217 ft 479 kts 81°
2026-05-07 17:20 39.84000 37.52090 29209 ft 477 kts 81°
2026-05-07 17:20 39.84656 37.60685 29207 ft 477 kts 81°
2026-05-07 17:21 39.85304 37.69260 29197 ft 475 kts 81°
2026-05-07 17:21 39.85946 37.77812 29206 ft 475 kts 81°
2026-05-07 17:22 39.86581 37.86360 29189 ft 474 kts 81°
2026-05-07 17:22 39.87211 37.94898 29200 ft 476 kts 81°
2026-05-07 17:23 39.87528 37.99224 29308 ft 484 kts 81°
2026-05-07 17:23 39.87844 38.03547 29539 ft 487 kts 81°
2026-05-07 17:23 39.88161 38.07930 29912 ft 487 kts 81°
2026-05-07 17:23 39.88475 38.12316 30364 ft 485 kts 81°
2026-05-07 17:24 39.88786 38.16692 30698 ft 486 kts 82°
2026-05-07 17:24 39.89097 38.21075 31011 ft 487 kts 82°
2026-05-07 17:24 39.89407 38.25467 31338 ft 487 kts 82°
2026-05-07 17:24 39.89718 38.29862 31646 ft 488 kts 82°
2026-05-07 17:25 39.90027 38.34268 31919 ft 489 kts 82°
2026-05-07 17:25 39.90335 38.38680 32190 ft 490 kts 82°
2026-05-07 17:25 39.90641 38.43104 32505 ft 490 kts 82°
2026-05-07 17:25 39.90946 38.47526 32797 ft 491 kts 83°
2026-05-07 17:26 39.91249 38.51961 33035 ft 492 kts 83°
2026-05-07 17:26 39.91553 38.56410 33118 ft 495 kts 83°
2026-05-07 17:26 39.92157 38.65354 33180 ft 496 kts 83°
2026-05-07 17:27 39.92754 38.74301 33174 ft 495 kts 83°
2026-05-07 17:27 39.93342 38.83215 33184 ft 494 kts 83°
2026-05-07 17:28 39.93816 38.92146 33180 ft 495 kts 87°
2026-05-07 17:28 39.93950 39.01121 33191 ft 496 kts 88°
2026-05-07 17:29 39.94093 39.10075 33197 ft 499 kts 88°
2026-05-07 17:29 39.94247 39.19129 33191 ft 501 kts 88°
2026-05-07 17:30 39.94388 39.28223 33192 ft 502 kts 88°
2026-05-07 17:30 39.94522 39.37321 33184 ft 502 kts 88°
2026-05-07 17:31 39.94650 39.46407 33185 ft 501 kts 89°
2026-05-07 17:31 39.94771 39.55476 33182 ft 500 kts 89°
2026-05-07 17:32 39.94874 39.64526 33184 ft 499 kts 89°
2026-05-07 17:32 39.94941 39.72036 33182 ft 498 kts 89°
2026-05-07 17:33 39.95028 39.82582 33178 ft 498 kts 89°
2026-05-07 17:33 39.95100 39.91594 33183 ft 497 kts 89°
2026-05-07 17:34 39.95177 40.00609 33192 ft 497 kts 89°
2026-05-07 17:34 39.95261 40.09624 33197 ft 498 kts 89°
2026-05-07 17:35 39.95335 40.18639 33194 ft 498 kts 89°
2026-05-07 17:35 39.95399 40.27608 33194 ft 499 kts 89°
2026-05-07 17:36 39.95458 40.36651 33200 ft 500 kts 89°
2026-05-07 17:36 39.95509 40.45716 33199 ft 501 kts 90°
2026-05-07 17:37 39.95552 40.54798 33205 ft 502 kts 90°
2026-05-07 17:37 39.95592 40.63916 33205 ft 504 kts 90°
2026-05-07 17:38 39.95623 40.73055 33213 ft 505 kts 90°
2026-05-07 17:38 39.95653 40.82220 33212 ft 507 kts 91°
2026-05-07 17:39 39.95676 40.91414 33215 ft 508 kts 91°
2026-05-07 17:39 39.95691 41.00632 33210 ft 509 kts 91°
2026-05-07 17:40 39.95700 41.09872 33211 ft 510 kts 91°
2026-05-07 17:40 39.95703 41.19134 33212 ft 511 kts 91°
2026-05-07 17:41 39.96144 41.28403 33200 ft 513 kts 85°
2026-05-07 17:41 39.96913 41.37664 33219 ft 515 kts 85°
2026-05-07 17:42 39.97645 41.46952 33212 ft 515 kts 86°
2026-05-07 17:42 39.98320 41.56249 33212 ft 515 kts 86°
2026-05-07 17:43 39.98980 41.65547 33212 ft 515 kts 86°
2026-05-07 17:43 39.99640 41.74849 33206 ft 515 kts 86°
2026-05-07 17:44 40.00305 41.84147 33219 ft 515 kts 86°
2026-05-07 17:44 40.00971 41.93438 33206 ft 514 kts 86°
2026-05-07 17:45 40.01623 42.02658 33197 ft 513 kts 86°
2026-05-07 17:45 40.02270 42.11926 33203 ft 513 kts 87°
2026-05-07 17:46 40.02907 42.21191 33208 ft 513 kts 87°
2026-05-07 17:46 40.03536 42.30459 33197 ft 513 kts 87°
2026-05-07 17:47 40.04062 42.38224 33201 ft 513 kts 87°
2026-05-07 17:47 40.04675 42.47503 33201 ft 513 kts 87°
2026-05-07 17:48 40.05253 42.56713 33207 ft 513 kts 87°
2026-05-07 17:48 40.05825 42.65988 33203 ft 513 kts 88°
2026-05-07 17:49 40.06396 42.75269 33197 ft 513 kts 88°
2026-05-07 17:49 40.06958 42.84553 33202 ft 513 kts 88°
2026-05-07 17:50 40.07516 42.93858 33194 ft 515 kts 88°
2026-05-07 17:50 40.08068 43.03187 33190 ft 516 kts 88°
2026-05-07 17:51 40.08614 43.12538 33185 ft 517 kts 88°
2026-05-07 17:51 40.09152 43.21909 33178 ft 517 kts 88°
2026-05-07 17:52 40.09686 43.31291 33178 ft 519 kts 89°
2026-05-07 17:52 40.10213 43.40709 33179 ft 521 kts 89°
2026-05-07 17:53 40.10727 43.50165 33174 ft 523 kts 89°
2026-05-07 17:53 40.11236 43.59650 33166 ft 524 kts 89°
2026-05-07 17:54 40.11899 43.69155 33145 ft 528 kts 83°
2026-05-07 17:54 40.13295 43.78601 33147 ft 530 kts 81°
2026-05-07 17:55 40.14749 43.88059 33140 ft 532 kts 82°
2026-05-07 17:55 40.16162 43.97552 33140 ft 532 kts 82°
2026-05-07 17:56 40.17531 44.06991 33140 ft 532 kts 82°
2026-05-07 17:56 40.18896 44.16508 33136 ft 532 kts 82°
2026-05-07 17:57 40.20036 44.24478 33138 ft 532 kts 82°
2026-05-07 17:57 40.21611 44.35528 33133 ft 531 kts 82°
2026-05-07 17:58 40.22954 44.45029 33128 ft 531 kts 82°
2026-05-07 17:58 40.24287 44.54523 33128 ft 530 kts 82°
2026-05-07 17:59 40.25611 44.64000 33132 ft 529 kts 82°
2026-05-07 17:59 40.26924 44.73465 33145 ft 528 kts 82°
2026-05-07 18:00 40.28231 44.82935 33139 ft 529 kts 83°
2026-05-07 18:00 40.29531 44.92428 33137 ft 530 kts 83°
2026-05-07 18:01 40.30825 45.01933 33138 ft 530 kts 83°
2026-05-07 18:01 40.32114 45.11455 33139 ft 531 kts 83°
2026-05-07 18:02 40.34038 45.25787 33132 ft 533 kts 83°
2026-05-07 18:03 40.35314 45.35380 33129 ft 535 kts 83°
2026-05-07 18:03 40.36587 45.45005 33139 ft 536 kts 83°
2026-05-07 18:04 40.37854 45.54651 33146 ft 538 kts 83°
2026-05-07 18:04 40.39120 45.64343 33144 ft 540 kts 83°
2026-05-07 18:05 40.40488 45.74043 33112 ft 541 kts 82°
2026-05-07 18:05 40.41925 45.83662 33126 ft 541 kts 82°
2026-05-07 18:06 40.43353 45.93350 33143 ft 541 kts 82°
2026-05-07 18:06 40.44757 46.03049 33140 ft 540 kts 82°
2026-05-07 18:07 40.46145 46.12748 33147 ft 540 kts 83°
2026-05-07 18:07 40.47522 46.22447 33142 ft 540 kts 83°
2026-05-07 18:08 40.48892 46.32126 33139 ft 538 kts 83°
2026-05-07 18:08 40.50247 46.41772 33146 ft 536 kts 83°
2026-05-07 18:09 40.51593 46.51402 33141 ft 535 kts 83°